{"data":{"norad_id":66270,"epoch":"2026-09-20T13:24:32.436000Z","epoch_age_seconds":91564,"freshness":"FRESH","line1":"1 66270U 25247F   26263.55870875  .00025753  00000+0  77037-3 0  9993","line2":"2 66270  53.1647   1.7194 0000872  89.3758 270.7345 15.34414154 50980","mean_motion":15.34414154,"eccentricity":8.72e-5,"inclination_deg":53.1647,"raan_deg":1.7194,"arg_perigee_deg":89.3758,"mean_anomaly_deg":270.7345,"bstar":0.00077037,"rev_number":5098,"period_min":93.846892395128,"perigee_km":462.06465425908,"apogee_km":463.25768946025,"semimajor_km":6840.7981718597,"source":"CELESTRAK","updated_at":"2026-09-21T09:00:35.867624Z"}}